sat.trackr.live / text

‹ back to catalog

STARLINK-36268

NORAD 67199 · 2025-304H

PAYLOAD ACTIVE UNKNOWN

§ Identity

Operator
Country
US
Launch date
2025-12-17
Launch site
AFWTR
Launch vehicle
Mass (kg)
RCS (m²)

Purposes: comms

External: N2YO · Heavens-Above · Gunter

§ Orbital elements

Epoch: 2026-09-20T02:31:35.866272Z

Period
96.11 min
Inclination
70.0009°
Eccentricity
0.0003178
Mean motion
14.98337047 rev/d
Perigee alt
569.8 km
Apogee alt
574.2 km
Semi-major
6,950.2 km
B*
4.8536e-4
RAAN
44.3659°
Arg perigee
256.4794°
Mean anomaly
103.6011°
Rev number
4,299

§ Raw data

STARLINK-362681 67199U 25304H   26263.10527623  .00005704  00000+0  48536-3 0  99952 67199  70.0009  44.3659 0003178 256.4794 103.6011 14.98337047 42999

JSON: /api/v1/satellites/67199 · /tle

For live sub-satellite position, see the globe view (requires WebGL).

§ Visibility from observer

Set your observer location to see the next 7 days of passes ≥ 10°. The values pass through the URL so the page stays shareable.

No JS? Fill the form by hand. The geolocation button needs JavaScript.